RH
76 78 79 79 79 78 73 71 71 72 72 73 73 75 75 75 78 93 96 96 90 98 81 73 76 90 84 98 98 98 99 99 99 98 95 93 80 65 60 54 66 81 95 98 95 94 89 53 49 56 56 68 69 72
80 81 81 80 80 79 76 72 72 74 74 74 74 76 76 75 78 86 96 95 93 100 98 96 83 74 78 94 99 100 99 100 99 98 95 81 84 88 69 73 54 70 66 85 80 84 66 55 55 58 66 71 74 76
82 82 82 82 82 80 75 74 76 75 75 74 73 73 74 77 79 80 96 98 100 100 98 98 86 64 60 71 81 99 96 98 98 95 98 97 88 76 86 76 66 59 58 67 58 53 56 60 54 54 56 75 68 79
83 83 83 83 82 81 80 78 78 77 76 72 71 71 75 77 79 79 92 99 100 100 99 86 63 73 59 61 66 70 70 72 81 89 98 98 94 74 80 70 76 69 68 71 70 62 54 54 53 57 62 63 74 81
84 83 84 82 82 82 81 81 81 79 75 72 71 70 70 72 74 85 98 96 92 96 97 95 80 64 62 66 60 62 64 72 92 97 99 99 95 92 86 85 92 74 75 82 82 60 54 54 54 53 64 70 68 78
84 85 84 83 82 83 82 82 82 81 79 73 69 68 69 76 81 91 94 86 97 95 96 98 83 81 68 65 67 68 73 80 84 91 97 95 88 87 100 99 64 59 60 60 59 54 61 62 62 59 62 56 53 81
86 86 84 84 83 81 82 83 82 79 77 75 73 70 70 76 95 94 87 89 90 94 97 97 97 77 76 77 88 85 79 84 87 90 95 88 85 91 99 85 55 54 50 52 59 66 74 70 76 65 73 74 85 90
86 86 86 85 83 83 83 83 79 76 75 74 73 76 76 73 83 95 95 82 92 98 98 93 95 92 78 96 94 94 96 94 93 87 91 90 82 90 92 56 54 51 50 54 58 59 57 56 70 70 81 92 90 86
87 86 86 86 84 84 84 83 79 76 75 76 83 82 94 96 100 97 76 83 98 96 98 96 96 94 83 99 97 96 95 99 91 98 96 91 94 90 66 64 52 48 52 51 48 50 53 71 71 86 92 93 92 96
88 87 86 86 85 85 85 84 81 77 76 81 93 99 99 98 78 84 98 100 100 99 99 98 91 97 92 98 99 100 99 99 99 92 93 98 84 61 57 61 61 50 48 46 63 83 91 90 89 88 93 92 90 91
88 87 87 86 85 85 84 82 78 76 83 99 100 99 93 81 98 100 98 99 96 96 96 93 86 84 90 97 98 98 98 98 97 81 90 92 96 85 98 92 89 67 50 49 49 48 54 61 72 90 95 94 91 83
82 83 83 83 82 82 80 80 79 92 98 93 95 91 98 100 99 99 96 94 94 84 92 97 96 85 92 93 94 94 96 97 87 92 97 95 93 88 98 86 89 89 92 90 84 75 71 78 82 89 92 97 92 83
81 80 78 81 82 79 79 79 80 81 90 98 100 100 100 98 98 97 96 91 97 92 91 96 97 96 93 93 99 100 98 95 97 98 93 88 91 98 94 91 86 80 84 88 91 92 97 87 73 90 94 94 93 95
81 79 77 79 80 81 82 85 92 95 99 99 99 98 96 96 95 88 84 77 83 89 85 90 96 93 90 98 94 98 91 97 98 98 92 98 98 94 89 87 87 91 96 95 98 97 98 95 90 94 92 94 96 98
79 79 80 80 83 85 87 89 88 98 100 99 99 95 97 91 95 96 96 97 95 98 99 98 95 94 97 98 94 95 99 96 95 95 99 100 99 94 92 87 85 95 97 98 98 99 99 98 97 98 96 96 95 96
79 86 92 86 87 82 83 87 97 98 100 100 100 92 96 99 98 100 99 99 97 98 100 100 98 99 97 98 96 98 98 95 93 99 99 97 94 95 96 94 92 94 96 98 99 99 99 99 99 99 98 97 97 94
86 96 82 86 85 92 89 95 98 100 99 99 99 99 98 99 98 98 99 98 99 100 99 99 98 88 93 99 94 93 96 94 96 99 98 95 96 96 96 95 97 92 94 98 98 98 98 98 97 97 97 97 97 97
97 90 83 83 85 92 98 98 99 99 95 93 99 99 97 98 100 99 99 100 100 99 100 98 96 95 94 91 98 97 100 99 99 99 98 96 96 96 96 98 98 94 98 98 97 98 97 97 96 96 96 96 96 96
90 91 79 84 91 98 100 99 98 98 96 98 99 99 98 99 99 99 99 99 99 98 100 99 99 99 98 98 99 100 100 99 98 98 99 98 97 96 99 99 98 98 99 98 98 98 98 98 96 96 94 95 96 98
84 84 84 82 91 99 100 97 93 96 97 96 99 99 98 97 98 99 99 100 99 99 99 99 97 97 98 99 99 99 98 98 100 98 99 99 97 97 99 99 99 99 99 98 98 98 98 97 96 96 96 95 95 98
81 85 80 92 95 97 99 98 98 96 99 99 99 98 99 98 99 99 99 99 99 99 98 98 100 98 100 99 98 96 97 94 99 98 98 98 97 99 99 99 98 98 98 99 99 99 98 98 97 96 97 97 97 97
88 78 85 84 89 98 99 95 94 97 98 99 99 98 98 99 98 99 98 100 99 96 98 99 98 98 98 98 96 93 94 93 98 100 99 99 99 99 99 99 98 99 99 99 99 99 98 98 97 97 97 98 97 98
75 74 89 97 99 98 92 93 95 91 99 97 98 95 98 99 98 94 100 96 97 97 98 99 98 97 97 98 94 97 94 92 97 99 99 99 99 99 99 99 99 99 99 99 99 98 98 98 98 98 98 98 99 100
78 87 93 96 98 97 97 94 92 97 98 99 98 97 96 98 91 98 98 97 96 99 99 100 96 98 98 94 98 98 98 96 99 99 99 98 99 99 99 99 99 99 98 99 98 98 98 98 97 98 98 97 97 97
93 92 94 94 94 95 100 98 96 95 96 93 97 96 92 93 99 100 94 97 96 97 100 100 95 92 96 98 98 98 98 99 99 98 99 99 99 98 98 97 99 100 99 99 99 98 99 98 98 98 98 98 97 97
100 89 94 92 97 98 96 99 98 97 98 94 93 94 96 97 98 94 96 98 98 98 99 99 98 98 99 98 99 100 99 99 98 98 99 99 99 98 98 98 98 98 99 99 98 99 98 98 98 98 98 98 97 97
98 96 94 92 95 87 96 96 93 99 98 97 96 98 97 88 95 95 99 98 97 98 98 97 96 95 96 99 99 99 99 98 97 98 98 97 97 96 96 97 98 98 98 97 98 98 98 98 99 99 100 99 99 98
92 79 93 93 95 96 96 100 100 99 98 96 96 97 94 91 94 97 100 98 98 97 97 97 98 97 97 98 99 99 99 98 98 97 95 94 96 98 98 99 98 94 98 98 98 98 98 98 99 98 98 100 99 98
99 96 95 100 100 99 100 97 97 98 97 97 98 97 97 97 97 99 97 98 98 98 98 98 98 98 97 98 99 99 98 98 97 97 96 99 99 97 98 99 98 98 99 98 92 95 96 98 98 98 98 99 98 98
96 96 98 100 96 100 93 98 99 98 99 97 95 95 96 98 97 99 99 98 98 98 98 98 98 97 98 97 99 99 98 98 98 97 97 98 95 97 100 100 100 100 98 98 98 98 91 94 94 96 98 98 98 99
94 98 99 100 100 98 98 99 99 97 99 100 100 97 97 98 97 98 98 99 99 99 100 98 98 98 97 98 98 99 99 98 97 97 97 97 98 98 99 100 100 100 100 98 100 98 98 100 99 97 97 96 100 100
98 97 100 100 97 93 99 100 100 100 100 100 100 100 100 100 99 99 99 99 98 97 97 97 97 98 98 97 98 98 96 98 99 99 96 98 99 100 100 100 100 97 98 99 99 100 100 98 97 98 98 98 98 98
96 99 100 98 99 93 96 100 98 99 100 100 99 99 100 96 96 98 97 98 99 98 98 98 98 98 97 96 96 97 96 97 96 97 96 98 97 99 99 98 97 96 96 97 99 98 97 96 97 96 96 96 96 96
Wind_Speed
9 8 10 9 8 9 9 8 7 6 8 9 9 11 13 14 12 6 3 6 9 4 10 12 8 8 9 6 6 4 4 4 6 7 6 5 4 6 4 3 7 7 7 5 4 6 11 7 2 4 5 3 4 5
10 8 8 9 9 10 9 7 6 6 6 7 8 10 12 13 10 8 2 2 4 5 4 2 10 14 15 13 3 3 3 3 2 1 1 4 4 1 4 4 2 5 7 7 9 9 6 3 6 2 4 6 5 5
11 10 9 10 11 10 7 5 5 5 6 5 5 6 9 9 14 9 2 1 1 3 6 7 14 14 12 17 9 4 2 2 1 1 1 0 1 3 4 5 3 3 3 3 3 5 5 3 3 5 7 7 7 7
11 10 9 10 10 9 7 6 5 4 3 3 3 2 3 7 13 10 3 4 2 3 3 6 2 6 3 5 9 11 7 1 2 0 1 1 0 1 1 2 4 5 6 7 3 4 4 5 7 8 6 8 8 8
12 9 10 11 10 8 8 8 6 5 4 4 3 3 3 5 9 4 2 3 3 2 3 5 9 9 8 7 8 7 3 2 2 2 2 2 1 2 1 1 4 5 6 5 7 7 5 7 7 9 8 9 11 10
11 10 11 11 9 8 8 8 8 7 5 4 3 2 3 5 6 4 5 3 2 3 2 5 5 6 4 2 4 5 4 3 2 3 3 3 3 3 1 4 6 7 4 6 8 5 9 9 10 12 10 16 15 12
11 11 11 10 9 7 9 8 8 8 7 5 4 3 3 4 3 4 6 4 3 2 3 5 5 5 4 1 2 0 1 2 4 3 3 4 3 4 3 12 15 10 11 11 10 5 5 8 8 9 8 10 7 7
11 11 11 10 10 8 9 9 8 7 7 6 3 2 3 1 1 3 4 8 2 2 0 3 6 5 2 1 1 0 1 1 2 4 1 2 1 3 7 17 12 17 17 14 12 11 12 11 5 9 8 4 6 5
11 12 11 11 11 10 9 9 8 8 7 6 9 6 4 1 2 4 5 5 2 3 3 3 3 5 1 0 0 3 2 1 1 2 3 4 3 7 10 6 11 13 13 18 15 12 12 11 12 10 7 7 7 7
9 11 11 11 11 10 10 10 9 9 11 10 4 3 3 4 2 4 2 2 3 4 3 5 2 4 3 0 3 2 2 3 2 4 2 3 6 12 10 12 15 14 12 12 7 8 6 6 9 10 11 8 7 8
10 11 11 11 9 9 9 10 9 10 8 2 2 3 2 6 2 1 3 3 3 4 4 4 7 7 2 3 3 4 3 2 3 2 3 3 4 2 5 8 12 6 11 10 12 14 13 11 8 7 7 10 8 10
10 10 10 9 9 9 10 10 12 6 3 5 2 3 2 3 4 4 4 3 5 5 4 4 5 5 3 2 2 2 3 4 5 3 3 3 3 4 7 10 12 11 9 7 6 7 8 10 10 9 9 11 11 11
7 7 8 9 10 11 11 12 14 11 8 2 3 4 3 3 5 6 7 4 4 4 4 4 2 3 2 3 1 2 5 4 2 3 4 4 1 3 8 9 12 10 9 7 9 11 11 13 9 9 9 9 12 11
5 5 8 8 11 13 14 16 15 14 5 5 5 5 4 5 5 5 4 4 5 4 2 2 3 3 4 4 3 3 4 1 3 2 5 2 3 5 6 6 7 10 10 11 8 8 10 13 8 7 11 13 13 12
5 7 11 11 12 11 10 10 10 4 4 4 4 6 8 5 3 3 3 3 4 3 5 2 1 3 3 3 3 2 3 4 4 5 0 1 1 3 5 7 9 9 9 9 8 6 6 6 8 10 10 10 10 11
8 10 6 10 12 12 10 8 5 3 3 4 5 4 3 0 3 2 2 3 3 1 2 2 3 3 4 3 4 6 3 6 4 1 2 1 3 3 4 5 6 7 8 7 5 4 5 7 7 7 8 8 9 11
8 3 3 3 2 5 8 3 3 5 4 4 5 3 2 2 4 3 2 3 1 2 3 2 4 8 1 3 4 4 5 2 2 1 1 3 3 5 5 6 5 6 6 5 3 4 4 4 6 7 7 3 6 5
4 2 2 1 4 3 1 1 2 4 7 6 4 3 3 3 2 3 3 2 1 2 2 4 2 4 5 5 4 4 1 1 1 1 2 4 2 4 4 6 5 4 3 4 4 3 3 4 4 3 6 5 7 6
4 2 3 5 3 1 2 4 4 3 5 3 2 2 2 3 3 3 2 3 4 3 3 2 3 3 4 3 3 2 1 1 1 3 3 4 3 3 4 5 4 3 3 2 2 2 2 4 3 3 4 4 4 3
10 10 9 8 8 1 3 3 2 3 3 3 1 2 3 3 1 2 4 2 3 2 2 4 4 3 4 2 3 2 2 2 0 2 3 3 2 4 4 2 2 1 2 3 3 3 3 3 4 4 4 4 4 4
3 2 4 5 3 3 3 2 3 3 2 2 1 1 3 1 2 2 2 1 1 2 3 3 3 2 2 2 2 1 1 2 2 1 1 2 2 1 1 1 1 2 2 2 2 2 3 2 3 3 3 3 3 3
3 5 2 0 2 3 3 3 3 1 1 2 2 2 3 2 3 3 2 1 3 4 3 3 3 4 2 2 1 0 2 1 1 1 1 2 1 1 1 1 2 1 1 1 2 2 2 3 3 3 4 3 3 3
1 3 0 2 3 1 6 1 2 2 2 3 1 3 3 2 3 1 2 3 4 3 3 3 3 3 4 2 2 1 1 2 2 2 1 1 1 1 2 2 1 2 2 2 1 2 2 4 3 3 4 4 3 3
3 2 2 3 4 4 2 2 2 2 1 2 2 3 3 3 1 1 4 3 3 1 2 3 4 5 3 2 1 0 2 1 2 2 2 2 2 2 2 3 3 3 2 2 3 3 3 3 5 3 3 4 4 4
3 3 3 4 3 2 2 3 3 1 3 3 2 4 3 2 1 3 4 3 1 3 1 3 4 4 3 2 1 1 2 1 2 3 3 2 2 2 3 3 3 3 2 3 2 3 2 2 2 3 2 3 4 5
2 4 5 3 3 2 3 2 2 3 2 2 5 2 1 2 1 6 1 3 2 1 2 4 4 3 2 2 2 0 1 1 2 3 2 2 2 2 2 2 2 3 4 3 2 2 2 1 2 2 2 3 4 3
3 4 2 1 1 1 3 3 2 1 3 4 3 1 2 4 6 3 2 2 3 3 2 1 2 4 5 4 3 1 1 2 3 4 3 3 4 4 3 2 3 0 1 3 3 3 1 3 2 2 2 1 2 4
4 2 2 4 2 1 3 2 2 4 4 2 2 3 5 6 5 2 2 2 4 3 3 3 3 4 4 3 2 2 3 3 5 5 5 5 4 3 4 2 1 2 1 2 2 3 3 2 3 3 3 3 3 2
2 3 3 3 3 2 4 6 5 3 3 2 1 3 3 2 3 2 3 2 3 2 2 2 3 3 4 3 3 2 3 1 4 4 4 2 2 3 3 2 2 1 1 1 2 3 3 3 3 1 2 3 3 1
4 2 2 2 3 5 6 3 3 3 1 2 2 2 3 3 3 1 1 2 1 2 2 2 1 3 3 3 2 3 4 3 1 2 4 4 4 2 1 2 2 2 2 2 2 0 3 2 1 2 2 3 2 1
3 3 2 2 4 5 4 3 2 2 1 2 1 4 4 3 4 2 0 1 2 2 2 2 2 2 4 4 3 3 1 3 4 6 5 4 3 3 2 2 3 2 3 2 1 2 2 1 1 1 2 1 1 1
3 2 2 3 5 5 5 2 3 2 3 1 3 1 3 4 3 4 3 3 3 2 0 1 3 1 1 3 3 2 4 3 2 2 3 3 2 2 2 3 3 4 4 4 4 3 1 2 2 2 3 2 4 4
3 3 1 3 5 6 4 4 4 4 1 3 4 5 5 5 4 3 3 1 1 3 0 1 2 3 4 5 6 5 6 5 7 8 8 7 5 3 2 3 3 4 6 5 5 5 8 8 7 8 8 8 9 9
Wind_Direction
196 200 194 185 188 179 184 196 204 222 236 238 239 236 233 236 231 150 228 191 195 236 253 243 236 236 260 232 273 305 272 226 200 176 180 175 213 208 159 192 167 161 150 191 173 196 245 181 179 171 211 244 210 244
195 185 182 177 174 175 178 194 221 232 223 234 244 238 233 234 222 156 191 185 205 228 272 309 263 248 247 234 241 256 247 297 3 167 203 157 188 128 154 205 211 191 183 174 172 204 219 147 184 256 227 228 228 245
183 178 178 176 172 172 179 195 209 201 211 224 232 230 231 217 184 179 123 92 119 252 257 247 251 258 226 226 183 273 273 293 328 202 184 279 174 168 174 222 165 245 153 168 124 214 210 167 283 244 265 237 264 260
173 171 178 170 167 171 181 182 177 176 183 209 198 200 203 176 176 180 204 154 194 269 286 280 285 263 243 199 220 211 245 204 141 301 164 156 179 95 233 278 193 201 141 169 248 284 332 295 263 263 249 267 265 270
165 169 174 171 170 178 184 178 175 164 149 141 133 121 132 164 187 198 204 224 225 278 284 283 306 266 247 216 224 230 210 144 137 21 46 259 303 60 314 333 238 195 189 166 215 180 180 243 237 256 264 262 271 264
163 166 168 168 168 175 183 184 184 181 171 155 132 95 81 110 108 67 8 307 251 191 279 294 286 291 306 288 217 208 195 145 136 155 222 252 240 135 239 248 215 207 210 189 259 202 208 235 250 259 259 263 265 250
168 169 171 172 173 183 183 183 186 187 190 196 207 227 260 155 104 139 188 218 342 96 86 300 299 274 298 37 17 105 55 188 155 198 222 213 229 146 208 251 240 240 238 237 223 217 263 237 244 255 258 263 269 255
179 178 179 178 178 179 181 175 180 190 202 209 222 85 61 84 45 304 253 232 142 86 116 263 269 331 291 287 317 210 207 356 247 212 71 205 307 194 241 243 243 241 245 243 233 219 236 264 265 264 250 216 196 185
188 186 183 182 184 182 180 180 188 194 209 121 107 76 37 72 199 233 247 114 91 140 251 226 227 260 340 307 20 348 106 306 272 204 230 150 211 225 243 257 246 241 229 244 247 243 240 229 240 235 227 217 186 166
186 184 183 184 185 188 189 187 192 199 130 121 57 42 283 215 238 202 122 157 192 189 222 240 200 254 101 127 298 22 219 237 275 236 118 221 253 260 274 295 282 255 234 241 228 228 211 218 218 226 218 204 185 168
182 178 180 182 186 191 198 193 189 123 90 99 185 228 247 143 176 197 201 201 181 238 217 238 210 229 223 155 222 198 234 227 259 226 208 244 260 252 296 313 342 284 222 223 219 233 220 229 215 204 203 187 166 159
168 171 176 183 191 196 194 192 191 154 166 179 252 243 183 200 219 192 197 198 209 239 198 206 213 191 264 164 142 208 241 186 254 133 230 255 253 355 346 346 349 352 358 336 316 276 250 232 219 202 188 176 167 155
163 186 197 206 211 213 214 217 217 189 127 67 240 234 198 188 239 201 202 206 221 212 208 176 203 152 171 198 244 183 221 241 76 229 234 235 251 353 351 347 338 338 338 323 302 292 278 256 221 182 180 169 155 151
186 230 241 237 236 239 240 241 234 216 173 209 200 223 210 220 230 213 209 207 215 193 171 162 140 180 184 184 241 235 241 137 258 265 245 261 35 354 346 331 323 324 323 327 307 297 277 240 202 153 152 151 152 155
240 253 258 257 256 259 262 239 221 171 176 227 200 229 215 229 255 242 253 250 224 194 159 175 202 162 183 237 210 251 281 253 219 227 282 253 349 357 329 328 325 325 327 324 325 337 1 58 119 115 131 139 136 137
260 279 239 223 236 239 242 256 193 137 224 211 233 241 252 324 258 225 225 257 253 258 115 141 165 161 220 200 187 220 205 230 245 235 236 282 312 302 289 296 301 308 315 318 340 357 40 65 81 87 90 112 130 143
259 241 196 336 185 8 146 150 156 183 234 221 239 203 196 244 234 243 231 239 86 230 205 135 170 206 138 213 220 192 217 211 262 309 309 286 287 297 289 302 295 302 315 327 2 33 47 65 94 101 115 97 111 109
239 253 295 279 169 129 279 186 224 214 233 229 234 227 205 216 237 255 243 254 197 256 182 229 172 181 202 197 243 232 200 245 230 238 267 282 291 306 321 330 336 335 337 359 23 43 75 91 96 87 109 110 95 92
235 241 292 175 175 245 231 210 223 255 235 211 247 213 221 248 249 239 244 244 233 254 285 258 220 210 224 220 191 211 215 179 285 281 275 285 330 314 327 329 336 9 28 22 45 54 53 60 86 98 111 118 111 111
275 275 262 216 187 255 276 235 235 250 245 238 169 213 229 234 256 248 248 232 220 205 195 232 219 221 189 200 185 161 186 193 134 316 309 321 315 305 297 309 350 33 63 63 68 76 64 69 66 85 88 99 118 131
310 246 119 129 186 218 264 271 252 231 259 239 278 227 255 220 236 230 252 208 242 220 225 216 214 211 213 174 162 130 254 158 201 264 280 283 305 342 15 354 54 46 58 56 74 65 72 87 103 106 109 100 105 114
238 167 102 181 196 230 249 225 225 236 235 255 219 220 252 244 237 227 180 190 232 228 195 176 183 172 167 145 109 298 311 272 221 211 0 103 53 350 347 71 84 69 82 138 114 120 84 94 102 104 105 116 111 115
194 145 51 197 237 266 262 38 215 223 231 257 234 253 245 254 234 122 269 227 250 221 176 170 159 134 125 118 106 62 257 211 175 193 174 136 76 44 62 51 104 120 99 38 109 107 98 100 99 109 105 106 105 84
28 159 207 226 199 256 313 285 231 244 265 223 224 264 247 237 142 247 252 239 243 147 127 137 126 125 119 96 67 66 23 108 108 74 72 104 91 52 46 52 43 41 50 90 82 86 89 105 131 133 135 138 146 151
103 251 120 282 286 246 297 309 285 271 252 228 222 285 257 137 205 249 238 291 227 190 139 123 151 164 149 123 78 11 2 108 116 96 23 80 87 65 56 52 48 21 14 64 64 96 95 99 101 118 124 147 158 163
202 253 145 220 274 168 237 262 231 234 211 265 235 267 47 109 287 249 310 326 332 270 163 177 170 134 118 134 154 330 323 32 92 87 20 26 70 127 131 115 62 23 5 29 72 119 146 146 145 165 172 192 192 168
222 267 257 342 231 282 337 305 285 236 265 224 249 169 153 234 249 255 317 357 308 318 304 202 153 158 151 136 109 88 358 70 96 104 88 61 54 37 63 92 98 323 333 43 33 39 187 185 184 196 217 336 209 185
219 255 195 270 343 261 218 263 235 234 250 320 273 207 202 201 244 246 235 292 319 339 11 24 53 91 102 110 131 118 57 69 97 100 93 65 43 35 37 55 96 139 93 89 62 45 48 74 197 202 193 213 252 244
341 326 62 313 310 293 220 201 230 236 194 127 165 275 268 248 228 236 279 284 306 0 47 69 26 69 79 67 48 51 63 84 163 155 151 175 5 316 352 351 26 24 160 131 121 111 74 47 65 110 217 211 239 254
290 41 47 308 222 240 250 178 238 270 282 192 141 3 326 296 256 225 334 358 19 264 236 218 159 139 150 129 113 35 24 26 18 167 167 182 206 235 359 329 356 20 24 175 181 35 53 86 53 43 33 33 57 65
327 25 330 219 250 252 250 269 257 222 222 238 300 169 232 276 309 310 98 266 283 282 174 165 141 153 145 155 142 122 53 344 44 57 62 81 92 79 52 340 327 25 49 55 73 176 148 21 9 15 10 71 62 287
339 225 152 295 288 296 359 8 272 228 268 194 260 23 3 33 290 303 322 352 355 360 18 122 133 192 177 110 104 105 103 107 73 67 81 87 67 345 331 357 22 53 59 52 35 30 32 186 86 18 306 321 57 56
308 14 314 348 336 344 310 15 296 284 285 234 246 194 192 171 218 269 310 38 267 299 176 104 75 70 87 100 110 100 88 84 79 70 66 63 60 44 29 23 55 63 73 67 51 58 65 70 65 60 60 66 65 63